FW8985 Weather Reports


time (UTC)temp
C
wind
direction
speed
KPH
gust
KPH
rain 1hr
cm
rain 24hr
cm
rain mn
cm
humidity
%
barometer
mb
20260906032033 22 0 0.0 0.0 0.00 1.75 1.75 96 1013.9
20260906031620 22 0 0.0 0.0 0.00 1.75 1.75 96 1013.8
20260906031035 22 0 0.0 0.0 0.00 1.75 1.75 96 1013.8
20260906030536 22 0 0.0 0.0 0.00 1.75 1.75 96 1013.7
20260906030054 22 0 0.0 0.0 0.00 1.75 1.75 95 1013.7
20260906025535 22 0 0.0 0.0 0.00 1.75 1.75 95 1013.8
20260906025035 22 0 0.0 4.8 0.00 1.75 1.75 96 1013.8
20260906024555 22 0 0.0 4.8 0.00 1.75 1.75 96 1013.9
20260906024035 22 0 0.0 3.2 0.00 1.75 1.75 96 1013.8
20260906023535 23 0 0.0 1.6 0.00 1.75 1.75 96 1013.6
20260906023110 23 278 0.0 1.6 0.00 1.75 1.75 96 1013.5
20260906022537 23 0 0.0 3.2 0.00 1.75 1.75 96 1013.4
20260906022035 23 0 0.0 3.2 0.00 1.75 1.75 96 1013.3
20260906021555 23 0 0.0 3.2 0.00 1.75 1.75 96 1013.2
20260906021034 23 278 0.0 3.2 0.00 1.75 1.75 96 1013.2
20260906020536 23 278 1.6 4.8 0.00 1.75 1.75 96 1013.2
20260906020058 23 277 1.6 4.8 0.00 1.75 1.75 96 1013.2
20260906015535 23 308 0.0 3.2 0.00 1.75 1.75 96 1013.1
20260906015035 23 0 0.0 3.2 0.00 1.75 1.75 95 1013.2
20260906014559 23 298 0.0 3.2 0.00 1.75 1.75 95 1013.1
20260906014035 23 286 0.0 3.2 0.00 1.75 1.75 95 1013.2
20260906013535 23 0 0.0 3.2 0.00 1.75 1.75 95 1013.3
20260906013057 23 0 0.0 1.6 0.00 1.75 1.75 95 1013.2
20260906012534 23 0 0.0 1.6 0.00 1.75 1.75 95 1013.1
20260906012034 23 0 0.0 1.6 0.00 1.75 1.75 95 1013.2
20260906011605 23 0 0.0 1.6 0.00 1.75 1.75 95 1013.1
20260906011036 23 0 0.0 1.6 0.00 1.75 1.75 95 1013.0
20260906010533 23 0 0.0 0.0 0.00 1.75 1.75 95 1013.0
20260906010055 23 0 0.0 0.0 0.00 1.75 1.75 95 1013.0
20260906005534 23 0 0.0 0.0 0.00 1.75 1.75 95 1013.0
20260906005034 24 0 0.0 1.6 0.00 1.75 1.75 95 1012.8
20260906004559 24 0 0.0 1.6 0.00 1.75 1.75 95 1012.7
20260906004033 24 249 0.0 1.6 0.00 1.75 1.75 94 1012.7
20260906003533 24 104 0.0 1.6 0.00 1.75 1.75 94 1012.6
20260906003056 24 104 0.0 1.6 0.00 1.75 1.75 94 1012.8
20260906002535 24 0 0.0 1.6 0.00 1.75 1.75 94 1012.7
20260906002031 24 0 0.0 1.6 0.00 1.75 1.75 94 1012.5
20260906001554 25 0 0.0 3.2 0.00 1.75 1.75 93 1012.5
20260906001035 25 0 0.0 3.2 0.00 1.75 1.75 93 1012.5
20260906000535 25 0 0.0 0.0 0.00 1.75 1.75 93 1012.4
20260906000059 25 0 0.0 0.0 0.00 1.75 1.75 93 1012.5
20260905235539 25 0 0.0 1.6 0.00 1.75 1.75 93 1012.3
20260905235035 25 0 0.0 1.6 0.00 1.75 1.75 92 1012.3
20260905234548 25 0 0.0 1.6 0.00 1.75 1.75 92 1012.2
20260905234035 25 0 0.0 1.6 0.00 1.75 1.75 92 1012.1
20260905233534 25 0 0.0 3.2 0.00 1.75 1.75 91 1012.0
20260905233103 25 0 0.0 4.8 0.00 1.75 1.75 91 1012.0
20260905232533 25 0 0.0 4.8 0.00 1.75 1.75 91 1012.0
20260905232034 26 0 0.0 3.2 0.00 1.75 1.75 91 1011.9
20260905231603 26 0 0.0 4.8 0.00 1.75 1.75 90 1011.8
20260905231035 26 209 0.0 4.8 0.00 1.75 1.75 89 1011.8
20260905230535 26 214 0.0 4.8 0.00 1.75 1.75 89 1011.8
20260905225535 26 51 1.6 6.4 0.00 1.75 1.75 87 1011.7
20260905225032 26 0 0.0 3.2 0.00 1.75 1.75 86 1011.6
20260905224555 26 0 0.0 3.2 0.00 1.75 1.75 86 1011.6
20260905224039 26 0 0.0 3.2 0.00 1.75 1.75 86 1011.6
20260905223534 26 0 0.0 3.2 0.00 1.75 1.75 86 1011.5
20260905223056 26 0 0.0 3.2 0.00 1.75 1.75 87 1011.6
20260905222535 26 74 0.0 6.4 0.00 1.75 1.75 86 1011.7
20260905222035 26 0 0.0 9.7 0.00 1.75 1.75 86 1011.7
20260905221621 26 191 3.2 9.7 0.00 1.75 1.75 85 1011.8
20260905221037 26 281 1.6 8.0 0.00 1.75 1.75 88 1011.8
20260905220535 25 269 0.0 4.8 0.00 1.75 1.75 89 1011.8
20260905220101 25 0 0.0 6.4 0.00 1.75 1.75 88 1011.9
20260905215535 25 0 0.0 8.0 0.00 1.75 1.75 89 1011.9
20260905215035 25 183 1.6 8.0 0.00 1.75 1.75 90 1012.0
20260905214602 25 251 0.0 4.8 0.00 1.75 1.75 91 1011.8
20260905214035 24 0 0.0 1.6 0.00 1.75 1.75 92 1011.8
20260905213536 24 0 0.0 1.6 0.00 1.75 1.75 92 1012.1
20260905213054 24 0 0.0 3.2 0.00 1.75 1.75 93 1012.3
20260905212535 24 0 0.0 3.2 0.00 1.75 1.75 94 1012.5
20260905212035 24 260 0.0 3.2 0.00 1.75 1.75 95 1012.5
20260905211558 24 0 0.0 3.2 0.00 1.75 1.75 94 1012.7
20260905211035 24 0 0.0 4.8 0.00 1.75 1.75 95 1012.6
20260905210536 24 0 0.0 4.8 0.00 1.75 1.75 96 1012.6
20260905210107 23 113 0.0 3.2 0.00 1.75 1.75 96 1012.7
20260905205536 23 0 0.0 3.2 0.00 1.75 1.75 96 1012.8
20260905205034 23 113 0.0 3.2 0.00 1.75 1.75 95 1012.6
20260905204556 23 165 0.0 3.2 0.00 1.75 1.75 96 1012.8
20260905204034 23 0 0.0 3.2 0.00 1.75 1.75 96 1012.7
20260905203531 23 0 0.0 3.2 0.00 1.75 1.75 95 1012.8
20260905203051 23 0 0.0 3.2 0.00 1.75 1.75 95 1013.1
20260905202535 22 0 0.0 3.2 0.00 1.75 1.75 96 1013.2
20260905202035 22 0 0.0 1.6 0.00 1.75 1.75 96 1013.3
20260905201557 22 0 0.0 3.2 0.00 1.75 1.75 96 1013.2
20260905201035 22 0 0.0 3.2 0.00 1.75 1.75 96 1013.2
20260905200537 22 69 0.0 4.8 0.00 1.75 1.75 96 1013.3
20260905200127 22 0 1.6 4.8 0.00 1.75 1.75 96 1013.3
20260905195535 22 119 1.6 4.8 0.00 1.75 1.75 96 1013.4
20260905195034 22 203 0.0 4.8 0.00 1.75 1.75 96 1013.4
20260905194552 22 334 0.0 6.4 0.00 1.75 1.75 96 1013.3
20260905194035 22 0 1.6 6.4 0.08 1.75 1.75 96 1013.4
20260905193535 21 0 0.0 3.2 0.13 1.75 1.75 96 1013.2
20260905193058 21 289 0.0 3.2 0.18 1.75 1.75 96 1013.2
20260905192535 21 0 0.0 9.7 0.38 1.75 1.75 96 1013.3
20260905192034 21 0 0.0 9.7 0.99 1.75 1.75 96 1013.4
20260905191558 21 290 0.0 6.4 1.24 1.75 1.75 95 1013.6
20260905191035 21 279 1.6 6.4 1.32 1.75 1.75 96 1013.8
20260905190534 21 0 0.0 14.5 1.42 1.75 1.75 95 1013.8
20260905190100 21 311 3.2 14.5 1.63 1.75 1.75 95 1013.8
20260905185538 21 282 3.2 8.0 1.75 1.75 1.75 95 1014.2
20260905185034 20 277 0.0 4.8 1.75 1.75 1.75 94 1014.3
20260905184600 20 0 1.6 14.5 1.73 1.73 1.73 94 1014.3
20260905184037 20 272 3.2 16.1 1.68 1.68 1.68 94 1014.4
20260905183533 21 258 4.8 16.1 1.63 1.63 1.63 93 1015.1
20260905183059 21 232 6.4 19.3 1.57 1.57 1.57 93 1015.7
20260905182535 21 183 4.8 19.3 1.37 1.37 1.37 91 1016.8
20260905182037 22 64 8.0 19.3 0.66 0.66 0.66 87 1016.4
20260905181557 24 285 3.2 9.7 0.51 0.51 0.51 84 1016.1
20260905181033 25 271 3.2 9.7 0.38 0.38 0.38 84 1014.5
20260905180531 27 304 4.8 16.1 0.30 0.30 0.30 80 1013.4
20260905180112 30 213 4.8 16.1 0.13 0.13 0.13 69 1013.3
20260905175533 31 234 1.6 4.8 0.00 0.00 0.00 70 1013.7
20260905175033 32 229 0.0 3.2 0.00 0.00 0.00 68 1013.5
20260905174550 32 122 0.0 3.2 0.00 0.00 0.00 67 1013.4
20260905174036 32 0 0.0 9.7 0.00 0.00 0.00 65 1013.7
20260905173533 33 134 3.2 9.7 0.00 0.00 0.00 64 1013.5
20260905173114 33 132 0.0 9.7 0.00 0.00 0.00 63 1013.8
20260905172534 33 113 3.2 9.7 0.00 0.00 0.00 64 1013.9
20260905172033 33 53 3.2 8.0 0.00 0.00 0.00 67 1014.0
20260905171558 32 155 1.6 9.7 0.00 0.00 0.00 66 1014.0
20260905171033 32 54 3.2 9.7 0.00 0.00 0.00 69 1014.0
20260905170533 32 59 3.2 9.7 0.00 0.00 0.00 67 1013.9
20260905170055 32 105 1.6 6.4 0.00 0.00 0.00 67 1013.9
20260905165535 32 53 1.6 6.4 0.00 0.00 0.00 67 1013.9
20260905165033 32 99 1.6 4.8 0.00 0.00 0.00 69 1014.1
20260905164555 32 126 3.2 8.0 0.00 0.00 0.00 66 1014.0
20260905164036 33 120 0.0 8.0 0.00 0.00 0.00 67 1014.2
20260905163536 33 145 1.6 4.8 0.00 0.00 0.00 69 1014.3
20260905163058 33 96 1.6 6.4 0.00 0.00 0.00 67 1014.4
20260905162534 33 107 3.2 6.4 0.00 0.00 0.00 72 1014.5
20260905162033 32 170 1.6 6.4 0.00 0.00 0.00 67 1014.5
20260905161559 32 62 1.6 6.4 0.00 0.00 0.00 68 1014.5
20260905161035 32 67 1.6 4.8 0.00 0.00 0.00 66 1014.6
20260905160535 32 0 1.6 6.4 0.00 0.00 0.00 68 1014.6
20260905160100 32 134 3.2 6.4 0.00 0.00 0.00 73 1014.7
20260905155536 32 34 3.2 6.4 0.00 0.00 0.00 69 1014.6
20260905155034 32 153 1.6 6.4 0.00 0.00 0.00 71 1014.7
20260905154552 32 53 1.6 6.4 0.00 0.00 0.00 70 1014.8
20260905154038 32 51 1.6 6.4 0.00 0.00 0.00 70 1014.7
20260905153535 32 110 1.6 6.4 0.00 0.00 0.00 72 1014.8
20260905153058 32 78 1.6 6.4 0.00 0.00 0.00 70 1014.8
20260905152534 32 298 0.0 6.4 0.00 0.00 0.00 71 1014.6
20260905152036 32 132 0.0 4.8 0.00 0.00 0.00 72 1014.6
20260905151556 31 179 1.6 4.8 0.00 0.00 0.00 71 1014.5
20260905151036 31 134 0.0 4.8 0.00 0.00 0.00 76 1014.5
20260905150533 31 0 1.6 9.7 0.00 0.00 0.00 73 1014.5
20260905150053 31 97 1.6 9.7 0.00 0.00 0.00 75 1014.6
20260905145537 31 69 3.2 9.7 0.00 0.00 0.00 74 1014.6
20260905145034 31 105 1.6 4.8 0.00 0.00 0.00 77 1014.7
20260905144559 31 49 3.2 6.4 0.00 0.00 0.00 74 1014.8
20260905144034 31 112 1.6 6.4 0.00 0.00 0.00 81 1014.7
20260905143535 30 62 1.6 4.8 0.00 0.00 0.00 79 1014.7
20260905143101 30 0 1.6 4.8 0.00 0.00 0.00 79 1014.7
20260905142540 30 111 0.0 4.8 0.00 0.00 0.00 80 1014.6
20260905142035 29 22 1.6 4.8 0.00 0.00 0.00 81 1014.6
20260905141554 28 130 1.6 4.8 0.00 0.00 0.00 83 1014.6
20260905141034 28 46 0.0 3.2 0.00 0.00 0.00 85 1014.6
20260905140533 28 130 0.0 3.2 0.00 0.00 0.00 84 1014.7
20260905135538 27 0 0.0 6.4 0.00 0.00 0.00 86 1014.7
20260905135034 27 9 1.6 6.4 0.00 0.00 0.00 87 1014.7
20260905134557 26 0 0.0 3.2 0.00 0.00 0.00 89 1014.9
20260905134035 26 0 0.0 1.6 0.00 0.00 0.00 90 1015.0
20260905133534 26 0 0.0 1.6 0.00 0.00 0.00 90 1015.0
20260905133058 25 0 0.0 1.6 0.00 0.00 0.00 92 1014.9
20260905132534 25 0 0.0 1.6 0.00 0.00 0.00 92 1014.9
20260905132036 25 0 0.0 1.6 0.00 0.00 0.00 93 1015.0
20260905131552 24 0 0.0 1.6 0.00 0.00 0.00 93 1015.1
20260905131033 24 0 0.0 1.6 0.00 0.00 0.00 94 1015.2
20260905130533 23 0 0.0 1.6 0.00 0.00 0.00 94 1015.2
20260905130055 23 0 0.0 3.2 0.00 0.00 0.00 95 1015.3
20260905125535 23 0 0.0 3.2 0.00 0.00 0.00 95 1015.3
20260905125034 23 0 0.0 3.2 0.00 0.00 0.00 95 1015.3
20260905124600 23 0 0.0 3.2 0.00 0.00 0.00 95 1015.2
20260905124034 22 0 0.0 1.6 0.00 0.00 0.00 95 1015.3
20260905123533 22 0 0.0 0.0 0.00 0.00 0.00 95 1015.2
20260905123048 22 0 0.0 0.0 0.00 0.00 0.00 95 1015.1
20260905122533 22 0 0.0 1.6 0.00 0.00 0.00 95 1015.1
20260905122033 22 0 0.0 3.2 0.00 0.00 0.00 95 1015.1
20260905121600 22 0 0.0 3.2 0.00 0.00 0.00 96 1015.1
20260905121034 22 124 0.0 1.6 0.00 0.00 0.00 95 1015.1
20260905120536 22 0 0.0 3.2 0.00 0.00 0.00 95 1015.1
20260905120109 21 0 0.0 3.2 0.00 0.00 0.00 96 1015.1
20260905115534 21 0 0.0 3.2 0.00 0.00 0.00 96 1015.0
20260905115033 21 0 0.0 3.2 0.00 0.00 0.00 96 1014.9
20260905114609 21 0 0.0 3.2 0.00 0.00 0.00 95 1014.9
20260905114034 21 0 0.0 3.2 0.00 0.00 0.00 95 1014.8
20260905113535 21 140 0.0 1.6 0.00 0.00 0.00 95 1014.7
20260905113100 21 0 0.0 1.6 0.00 0.00 0.00 95 1014.6
20260905112534 21 140 0.0 1.6 0.00 0.00 0.00 95 1014.5
20260905112034 21 0 0.0 1.6 0.00 0.00 0.00 95 1014.4
20260905111646 21 0 0.0 1.6 0.00 0.00 0.00 95 1014.2
20260905111033 21 140 0.0 1.6 0.00 0.00 0.00 95 1014.2
20260905110534 21 0 0.0 1.6 0.00 0.00 0.00 95 1014.2
20260905110056 22 0 0.0 0.0 0.00 0.00 0.00 95 1014.1
20260905105536 22 0 0.0 0.0 0.00 0.00 0.00 95 1014.1
20260905105034 22 0 0.0 1.6 0.00 0.00 0.00 95 1013.8
20260905104556 22 0 0.0 1.6 0.00 0.00 0.00 95 1013.8
20260905104033 22 0 0.0 1.6 0.00 0.00 0.00 95 1013.7
20260905103535 22 0 0.0 0.0 0.00 0.00 0.00 95 1013.7
20260905103103 22 0 0.0 0.0 0.00 0.00 0.00 95 1013.8
20260905102533 22 0 0.0 1.6 0.00 0.00 0.00 95 1013.7
20260905102037 22 0 0.0 1.6 0.00 0.00 0.00 95 1013.7
20260905101558 22 0 0.0 1.6 0.00 0.00 0.00 95 1013.6
20260905101033 22 0 0.0 3.2 0.00 0.00 0.00 95 1013.7
20260905100534 22 88 0.0 3.2 0.00 0.00 0.00 94 1013.5
20260905095534 22 0 0.0 1.6 0.00 0.00 0.00 94 1013.5
20260905095033 22 0 0.0 1.6 0.00 0.00 0.00 94 1013.5
20260905094551 22 0 0.0 3.2 0.00 0.00 0.00 94 1013.6
20260905094036 22 0 0.0 3.2 0.00 0.00 0.00 94 1013.6
20260905093535 22 0 0.0 3.2 0.00 0.00 0.00 94 1013.6
20260905093106 22 0 0.0 3.2 0.00 0.00 0.00 94 1013.6
20260905092534 22 0 0.0 3.2 0.00 0.00 0.00 94 1013.6
20260905092035 22 0 0.0 1.6 0.00 0.00 0.00 94 1013.7
20260905091559 22 0 0.0 1.6 0.00 0.00 0.00 94 1013.7
20260905091035 22 0 0.0 1.6 0.00 0.00 0.00 94 1013.7
20260905090537 22 0 0.0 1.6 0.00 0.00 0.00 94 1013.7
20260905090057 22 0 0.0 1.6 0.00 0.00 0.00 94 1013.8
20260905085534 22 0 0.0 1.6 0.00 0.00 0.00 94 1013.8
20260905085035 22 0 0.0 1.6 0.00 0.00 0.00 94 1013.9
20260905084558 22 0 0.0 1.6 0.00 0.00 0.00 94 1013.8
20260905084037 22 0 0.0 1.6 0.00 0.00 0.00 94 1014.0
20260905083535 22 0 0.0 1.6 0.00 0.00 0.00 94 1014.0
20260905083050 22 0 0.0 1.6 0.00 0.00 0.00 94 1014.1
20260905082534 22 0 0.0 3.2 0.00 0.00 0.00 94 1014.2
20260905082035 22 0 0.0 3.2 0.00 0.00 0.00 95 1014.2
20260905081556 22 0 0.0 3.2 0.00 0.00 0.00 95 1014.2
20260905081035 22 0 0.0 3.2 0.00 0.00 0.00 95 1014.3
20260905080535 22 274 0.0 3.2 0.00 0.00 0.00 94 1014.3
20260905080056 22 0 0.0 3.2 0.00 0.00 0.00 95 1014.3
20260905075535 22 274 0.0 3.2 0.00 0.00 0.00 95 1014.3
20260905075034 22 0 0.0 1.6 0.00 0.00 0.00 94 1014.4
20260905074556 22 0 0.0 0.0 0.00 0.00 0.00 94 1014.4
20260905074035 22 0 0.0 3.2 0.00 0.00 0.00 94 1014.4
20260905073535 22 0 0.0 4.8 0.00 0.00 0.00 94 1014.4
20260905073049 22 274 0.0 4.8 0.00 0.00 0.00 94 1014.4
20260905072534 22 267 1.6 4.8 0.00 0.00 0.00 94 1014.5
20260905072034 23 258 1.6 3.2 0.00 0.00 0.00 94 1014.6
20260905071556 23 0 0.0 3.2 0.00 0.00 0.00 94 1014.7
20260905071034 23 273 0.0 3.2 0.00 0.00 0.00 94 1014.7
20260905070536 23 273 0.0 3.2 0.00 0.00 0.00 94 1014.8
20260905065538 23 0 0.0 1.6 0.00 0.00 0.00 94 1014.8
20260905065034 23 202 0.0 1.6 0.00 0.00 0.00 95 1014.9
20260905064611 23 0 0.0 1.6 0.00 0.00 0.00 94 1015.0
20260905064034 23 0 0.0 1.6 0.00 0.00 0.00 94 1015.0
20260905063533 23 0 0.0 1.6 0.00 0.00 0.00 94 1015.1
20260905063052 23 0 0.0 1.6 0.00 0.00 0.00 94 1015.0
20260905062532 23 0 0.0 1.6 0.00 0.00 0.00 94 1015.0
20260905062033 23 0 0.0 1.6 0.00 0.00 0.00 94 1015.0
20260905061557 23 0 0.0 1.6 0.00 0.00 0.00 94 1015.2
20260905061034 23 0 0.0 1.6 0.00 0.00 0.00 94 1015.3
20260905060533 23 0 0.0 1.6 0.00 0.00 0.00 94 1015.3
20260905060053 23 0 0.0 1.6 0.00 0.00 0.00 94 1015.4
20260905055533 23 0 0.0 1.6 0.00 0.00 0.00 94 1015.4
20260905055034 23 0 0.0 1.6 0.00 0.00 0.00 94 1015.4
20260905054554 23 0 0.0 1.6 0.00 0.00 0.00 94 1015.4
20260905054037 23 0 0.0 0.0 0.00 0.00 0.00 94 1015.5
20260905053533 23 0 0.0 0.0 0.00 0.00 0.00 94 1015.5
20260905053055 23 0 0.0 0.0 0.00 0.00 0.00 94 1015.5
20260905052535 23 0 0.0 1.6 0.00 0.00 0.00 94 1015.6
20260905052033 23 0 0.0 1.6 0.00 0.00 0.00 94 1015.6
20260905051553 23 0 0.0 1.6 0.00 0.00 0.00 94 1015.5
20260905051036 23 0 0.0 1.6 0.00 0.00 0.00 93 1015.5
20260905050533 23 0 0.0 0.0 0.00 0.00 0.00 93 1015.4
20260905050100 23 0 0.0 0.0 0.00 0.00 0.00 93 1015.4
20260905045534 23 0 0.0 0.0 0.00 0.00 0.00 93 1015.5
20260905045034 23 0 0.0 0.0 0.00 0.00 0.00 93 1015.5
20260905044558 23 0 0.0 0.0 0.00 0.00 0.00 93 1015.4
20260905044034 23 0 0.0 0.0 0.00 0.00 0.00 93 1015.4
20260905043534 24 0 0.0 0.0 0.00 0.00 0.00 92 1015.3
20260905043056 24 0 0.0 0.0 0.00 0.00 0.00 92 1015.4
20260905042533 24 0 0.0 0.0 0.00 0.00 0.00 92 1015.4
20260905042033 24 0 0.0 0.0 0.00 0.00 0.00 92 1015.4
20260905041558 24 0 0.0 0.0 0.00 0.00 0.00 92 1015.3
20260905041033 24 0 0.0 0.0 0.00 0.00 0.00 92 1015.4
20260905040534 24 0 0.0 0.0 0.00 0.00 0.00 92 1015.3
20260905040056 24 0 0.0 0.0 0.00 0.00 0.00 91 1015.4
20260905035533 24 0 0.0 0.0 0.00 0.00 0.00 91 1015.2
20260905035033 24 0 0.0 0.0 0.00 0.00 0.00 91 1015.2
20260905034601 24 0 0.0 0.0 0.00 0.00 0.00 91 1015.3
20260905034035 25 0 0.0 0.0 0.00 0.00 0.00 91 1015.4
20260905033534 25 0 0.0 0.0 0.00 0.00 0.00 91 1015.4
20260905033048 25 0 0.0 0.0 0.00 0.00 0.00 91 1015.5
20260905032533 25 0 0.0 0.0 0.00 0.00 0.00 91 1015.4